This demonstration page uses our WeatherBlox Daily Observations layout. Learn more.

Left ArrowRight Arrow

Hourly Observations for May 19, 2017

Temp ( °F °C ) Dew Point ( °F °C ) Humidity (%) Winds ( mph kmh ) Pressure ( in mb ) Visibility ( mi km ) Precip ( " mm )
12:53 am 00:53 Mostly Cloudy 73 22.8 70 21.1 90 90 NNE 3 6 30.03 1017 10 16 0.00 0.00
1:53 am 01:53 Cloudy 77 25 67 19.4 71 71 SSE 6 9 30.02 1017 10 16 0.00 0.00
2:53 am 02:53 Cloudy 77 25 65 18.3 66 66 SSE 10 17 30.03 1017 10 16 0.00 0.00
3:53 am 03:53 Cloudy 76 24.4 65 18.3 69 69 VRB 5 7 30.04 1017 10 16 0.00 0.00
4:53 am 04:53 Partly Cloudy 74 23.3 64 17.8 71 71 S 6 9 30.07 1018 10 16 0.00 0.00
5:53 am 05:53 Clear 73 22.8 64 17.8 74 74 Calm 30.07 1018 10 16 0.00 0.00
6:53 am 06:53 Cloudy 72 22.2 65 18.3 79 79 ESE 3 6 30.10 1019 10 16 0.00 0.00
7:53 am 07:53 Cloudy 72 22.2 64 17.8 76 76 SSE 6 9 30.12 1020 10 16 0.00 0.00
8:53 am 08:53 Cloudy 73 22.8 64 17.8 74 74 S 6 9 30.10 1019 10 16 0.00 0.00
9:53 am 09:53 Mostly Sunny 77 25 64 17.8 64 64 SSE 7 11 30.10 1019 10 16 0.00 0.00
10:53 am 10:53 Sunny 80 26.7 66 18.9 62 62 SSE 5 7 30.09 1019 10 16 0.00 0.00
11:53 am 11:53 Sunny 82 27.8 67 19.4 60 60 Calm 30.09 1019 10 16 0.00 0.00
12:53 pm 12:53 Sunny 85 29.4 67 19.4 55 55 VRB 3 6 30.07 1018 10 16 0.00 0.00
1:53 pm 13:53 Sunny 88 31.1 67 19.4 50 50 SE 6 9 30.04 1017 10 16 0.00 0.00
2:53 pm 14:53 Sunny 87 30.6 65 18.3 48 48 SW 6 9 30.03 1017 10 16 0.00 0.00
3:53 pm 15:53 Mostly Cloudy 88 31.1 65 18.3 46 46 ENE 7 11 30.01 1016 10 16 0.00 0.00
4:53 pm 16:53 Cloudy 87 30.6 65 18.3 48 48 S 6 9 30.00 1016 10 16 0.00 0.00
5:53 pm 17:53 Sunny 87 30.6 65 18.3 48 48 SSE 7 11 29.99 1016 10 16 0.00 0.00
6:53 pm 18:53 Cloudy 86 30 65 18.3 49 49 ESE 6 9 29.99 1016 10 16 0.00 0.00
7:53 pm 19:53 Partly Cloudy 86 30 65 18.3 49 49 SE 6 9 29.99 1016 10 16 0.00 0.00
8:53 pm 20:53 Clear 84 28.9 65 18.3 53 53 SE 5 7 30.01 1016 10 16 0.00 0.00
9:53 pm 21:53 Clear 81 27.2 66 18.9 61 61 S 5 7 30.02 1017 10 16 0.00 0.00
10:53 pm 22:53 Clear 80 26.7 66 18.9 62 62 S 6 9 30.04 1017 10 16 0.00 0.00
11:53 pm 23:53 Clear 79 26.1 65 18.3 62 62 S 3 6 30.06 1018 10 16 0.00 0.00

Powered by AerisWeather